7.00.02 - Input - Aster Analytics

Teradata Aster® Analytics Foundation User GuideUpdate 2

Product
Aster Analytics
Release Number
7.00.02
Release Date
September 2017
Content Type
Programming Reference
User Guide
Publication ID
B700-1022-700K
Language
English (United States)
DWT Example Input Table ville_climatedata
city period temp_f pressure_mbar dewpoint_f
Asheville 2010-01-01 00:00:00 34.9 1020.5 28.9
Asheville 2010-01-01 01:00:00 34.4 1020.2 28.7
Asheville 2010-01-01 02:00:00 33.9 1020 28.4
Asheville 2010-01-01 03:00:00 33.4 1020.2 28.3
Asheville 2010-01-01 04:00:00 33.1 1020.2 28
Asheville 2010-01-01 05:00:00 32.7 1020 27.9
Asheville 2010-01-01 06:00:00 32.5 1020.3 27.7
Asheville 2010-01-01 07:00:00 32.3 1020.8 27.6
Asheville 2010-01-01 08:00:00 32.1 1021.3 27.4
Asheville 2010-01-01 09:00:00 33.8 1021.7 28.2
Asheville 2010-01-01 10:00:00 36.4 1022.1 28.9
Asheville 2010-01-01 11:00:00 39.4 1022 29.3
Asheville 2010-01-01 12:00:00 42.1 1021.1 29.2
Asheville 2010-01-01 13:00:00 44.2 1020 29.1
Asheville 2010-01-01 14:00:00 45.6 1019.3 28.9
Asheville 2010-01-01 15:00:00 46.2 1019 28.5
Asheville 2010-01-01 16:00:00 45.8 1019.2 28.5
Asheville 2010-01-01 17:00:00 44.1 1019.6 28.6
Asheville 2010-01-01 18:00:00 41.2 1020.1 28.5
Asheville 2010-01-01 19:00:00 39.6 1020.6 28.8
Asheville 2010-01-01 20:00:00 38.2 1020.9 29
Asheville 2010-01-01 21:00:00 37.2 1021.1 29
Asheville 2010-01-01 22:00:00 36.3 1021 29
Asheville 2010-01-01 23:00:00 35.5 1020.9 29
Brownsville 2010-01-01 00:00:00 35.1 1020.5 28.9
Brownsville 2010-01-01 01:00:00 34.6 1020.2 28.8
Brownsville 2010-01-01 02:00:00 34.1 1020 28.5
Brownsville 2010-01-01 03:00:00 33.7 1020.1 28.4
... ... ... ... ...